1998-067PC (43554 NORAD) Tracking and Keplerian Element Data

This shows tracking and keplerian element data for the satellite.

Feedback or suggestion? Click here.




ElementValue
Catalog43554
Name1998-067PC
Epoch Orbit5785
Epoch Day203.1511122
Epoch Year2019
RAAN171.269
Inclination51.6366
Eccentricity0.0004744
Argument of Perigee278.4918
Mean Anonmoly81.5539
Mean Motion15.63900059
Decay Rate9.216E-05
L11 43554U 98067PC 19203.15111220 .00009216 00000-0 10164-3 0 9992
L22 43554 51.6366 171.2690 0004744 278.4918 81.5539 15.63900059 57858

Live tracking and technical data element details for 1998-067PC (NORAD 43554). 1998-067PC can be tracked NOW for your location showing map with azimuth and elevation plus other details from your city location.

Track the satellite on the map from your city or location and see movement details for azimuth, elevation, latitude, longitude, range, height, and movement on the map or in text.







IsCatalogInMostPopularTable: catalog: 43554, numindb: 213
Update: records affected: 1



GetName: 43554 1998-067PC

Hit Count: updated at: Mon, 22 Jul 2019 16:09:41 GMT